Zurück zum Katalog

FENGYUN 1C DEB

LostPO
NORAD 38500·DEBRIS·🇨🇳 China

Gestartet May 10, 1999 von Taiyuan Satellite Launch Center

Loading…

Nächste Überflüge (nächste 24 Stunden)

TLE

VeraltetSource: Space-Track

Epoche: Jul 28, 2026, 10:21 UTC

1 38500U 99025ESK 26209.43154984  .00001384  00000-0  11016-2 0  9995
2 38500  98.6483 283.9994 0198346 332.2305  26.8372 13.83966972263631

Verfolge FENGYUN 1C DEB in Echtzeit mit AllMySat

Download on the App Store